[[{"header":{"parameterUnit":"m.s-1","parameterCategory":1,"la1":30.2991,"la2":30.254,"lo1":-89.0895,"lo2":-89.0444,"dy":0.0017,"dx":0.0017,"nx":28,"ny":28,"refTime":"2023-09-24T21:00:00:Z","depth":0,"parameterNumber":2,"parameterNumberName":"U-component_of_WINDS"},"data":[0,0,0,0,0,0,0,0,0,0,0,0,0,0,0,0,0,0,0,0,0,0,0,0,0,0,0,0,0,0,0,0,0,0,0,0,0,0,0,0,0,0,0,0,0,0,0,0,0,0,0,0,0,0,0,0,0,0,1.0688,1.0688,0,1.0697,1.0697,1.0697,1.0687,1.0687,1.0686,1.0686,1.0696,1.0697,1.0697,0,0,0,0,0,0,0,0,0,0,0,0,0,1.0663,1.0664,1.0688,1.0688,1.0688,1.0697,1.0697,1.0697,1.0687,1.0687,1.0686,1.0686,1.0696,1.0697,1.0697,0,0,0,0,0,0,0,0,0,0,0,0,0,1.0673,1.0664,1.0688,1.0684,1.0684,1.0697,1.0697,1.0697,1.0687,1.0686,1.0686,1.0685,1.0696,1.0697,1.0698,1.0715,0,0,1.07,1.0701,0,0,0,0,0,0,0,0,1.0673,1.0674,1.0685,1.0685,1.0684,1.069,1.0692,1.0703,1.0687,1.0686,1.0686,1.0685,1.0695,1.0696,1.0699,1.0716,1.0716,1.0701,1.0701,1.0702,1.0702,0,0,0,0,0,0,0,1.0672,1.0674,1.0692,1.0685,1.0685,1.0682,1.0683,1.0694,1.0694,1.0686,1.0685,1.0686,1.0694,1.0698,1.0699,1.0716,1.0701,1.0701,1.0702,1.0702,1.0747,1.0747,0,0,0,0,0,0,1.0672,1.0673,1.0691,1.0692,1.0677,1.0683,1.0684,1.0689,1.0693,1.0693,1.0687,1.0686,1.0696,1.0698,1.0699,1.0719,1.0702,1.0702,1.0703,1.0746,1.0747,1.0747,0,0,0,0,0,0,1.0671,1.0674,1.0691,1.0682,1.0685,1.0684,1.069,1.0689,1.0693,1.0694,1.0694,1.069,1.0696,1.0698,1.0711,1.0719,1.0703,1.0704,1.0745,1.0746,1.0747,1.076,0,0,0,0,0,0,1.0671,1.0673,1.068,1.0683,1.0685,1.0702,1.069,1.069,1.0694,1.0693,1.0697,1.0697,1.0696,1.0709,1.0712,1.072,1.0704,1.0744,1.0746,1.0747,1.0758,1.0761,1.0763,0,0,0,0,0,1.067,1.0684,1.068,1.0683,1.0693,1.0703,1.0704,1.0702,1.0695,1.0701,1.0702,1.0697,1.0718,1.0711,1.0713,1.0722,1.0744,1.0745,1.0747,1.0757,1.076,1.0763,0,0,0,0,0,0,1.0683,1.0684,1.068,1.0696,1.0699,1.0701,1.0709,1.0705,1.0711,1.071,1.0707,1.0708,1.0721,1.0723,1.0715,1.0739,1.073,1.0732,1.0737,1.074,1.0742,1.0741,1.0705,0,0,0,0,0,1.0687,1.0695,1.0696,1.0709,1.0711,1.071,1.0714,1.0712,1.0715,1.0717,1.0719,1.0723,1.073,1.0735,1.0742,1.0759,1.0759,1.0766,1.0768,1.077,1.0772,1.078,1.0782,1.0752,1.0752,1.0752,0,0,1.0697,1.0699,1.0704,1.0712,1.0714,1.0722,1.0711,1.072,1.0726,1.0719,1.0731,1.0732,1.0736,1.0751,1.0757,1.0753,1.078,1.0772,1.0773,1.0774,1.0781,1.0784,1.0787,1.0753,1.0753,1.0752,0,0,1.0718,1.0721,1.0731,1.0734,1.0737,1.0736,1.0739,1.0742,1.0742,1.0754,1.0748,1.0755,1.0768,1.0771,1.0774,1.0796,1.0791,1.0798,1.081,1.0817,1.082,1.0822,1.0829,1.0831,1.08,1.08,1.08,0,1.073,1.0741,1.0738,1.0747,1.075,1.0743,1.0754,1.0756,1.0762,1.0765,1.076,1.0775,1.0778,1.0792,1.0797,1.08,1.0803,1.0798,1.082,1.0822,1.0824,1.083,1.0833,1.0801,1.0801,1.08,1.08,0,1.0755,1.0763,1.0771,1.0776,1.0781,1.0791,1.0788,1.0793,1.079,1.079,1.0802,1.0804,1.0811,1.0815,1.0812,1.0829,1.0825,1.082,1.0811,1.0827,1.0834,1.0836,1.0802,1.0801,1.0801,1.0801,0,0,1.0785,1.0787,1.079,1.0792,1.0795,1.0801,1.0811,1.0817,1.0821,1.0825,1.0832,1.0843,1.0838,1.0841,1.0839,1.0846,1.0862,1.0839,1.0839,1.0843,1.0879,1.0883,1.0886,1.0859,1.0859,1.0859,1.0878,0,1.0806,1.0822,1.0818,1.0834,1.0841,1.0833,1.0842,1.0844,1.0844,1.085,1.085,1.0857,1.085,1.0852,1.0858,1.0858,1.0869,1.0857,1.0865,1.0866,1.0864,1.0889,1.0893,1.0911,1.0881,1.0881,1.0881,0,1.0833,1.0837,1.0853,1.0853,1.0856,1.0864,1.0868,1.0874,1.0877,1.0876,1.088,1.0876,1.0885,1.0876,1.0888,1.088,1.0883,1.0884,1.0884,1.0885,1.0874,1.0889,1.0916,1.0919,1.0885,1.0885,1.0885,0,1.0852,1.0862,1.0872,1.0874,1.0876,1.0881,1.0882,1.0884,1.0887,1.0892,1.0894,1.0899,1.0902,1.0907,1.0904,1.0898,1.0917,1.0907,1.0916,1.0916,1.092,1.092,1.0948,1.0923,1.0923,1.0923,1.0923,0,1.0876,1.0886,1.0881,1.0887,1.0898,1.0894,1.0905,1.0905,1.0906,1.0913,1.0907,1.0913,1.091,1.0916,1.0914,1.0924,1.0926,1.0925,1.0925,1.0925,1.0925,1.0927,1.0926,1.0924,1.0924,1.0924,1.0923,0,1.0899,1.0897,1.0907,1.0908,1.0908,1.0916,1.0916,1.0922,1.092,1.0928,1.093,1.0929,1.0935,1.0933,1.094,1.0939,1.0951,1.095,1.095,1.095,1.0958,1.0957,1.0988,1.0991,1.0965,1.0965,1.0965,0,1.0914,1.0921,1.0922,1.0925,1.0926,1.0932,1.0935,1.0931,1.0935,1.0938,1.0943,1.0949,1.0953,1.0964,1.0964,1.0969,1.0967,1.0977,1.0968,1.0968,1.0966,1.0965,1.0966,1.0979,1.0979,1.0979,1.098,0,1.0941,1.0939,1.0943,1.0947,1.0951,1.0954,1.0956,1.096,1.0956,1.096,1.0966,1.0969,1.0976,1.0982,1.0986,1.0987,1.0983,1.0983,1.0985,1.0985,1.0985,1.0985,1.0955,1.0982,1.0982,1.0982,1.0981,1.0981,1.096,1.0965,1.0966,1.0971,1.0973,1.0975,1.098,1.0979,1.0984,1.0989,1.0986,1.0993,1.0995,1.1,1.1002,1.1007,1.1003,1.1007,1.1007,1.1008,1.1009,1.0985,1.1008,1.1008,1.1008,1.1008,1.1008,0,1.0985,1.0985,1.099,1.0993,1.0997,1.0991,1.0994,1.0997,1.1003,1.1005,1.1009,1.1016,1.1021,1.102,1.1025,1.1029,1.1027,1.1031,1.103,1.103,1.1012,1.101,1.1032,1.1032,1.1032,1.1032,1.1032,1.1032,1.0999,1.1008,1.1006,1.1015,1.1015,1.1021,1.1023,1.1025,1.1026,1.1033,1.1037,1.1037,1.1038,1.1042,1.1046,1.1046,1.1048,1.1052,1.1051,1.1034,1.1032,1.1029,1.1027,1.1053,1.1053,1.1068,1.1068,1.1069]},{"header":{"parameterUnit":"m.s-1","parameterCategory":1,"la1":30.2991,"la2":30.254,"lo1":-89.0895,"lo2":-89.0444,"dy":0.0017,"dx":0.0017,"nx":28,"ny":28,"refTime":"2023-09-24T21:00:00:Z","depth":0,"parameterNumber":3,"parameterNumberName":"V-component_of_WINDS"},"data":[0,0,0,0,0,0,0,0,0,0,0,0,0,0,0,0,0,0,0,0,0,0,0,0,0,0,0,0,0,0,0,0,0,0,0,0,0,0,0,0,0,0,0,0,0,0,0,0,0,0,0,0,0,0,0,0,0,0,3.1833,3.1833,0,3.1788,3.1788,3.1787,3.1775,3.1775,3.1776,3.1776,3.1723,3.1722,3.172,0,0,0,0,0,0,0,0,0,0,0,0,0,3.1903,3.1902,3.1834,3.1833,3.1832,3.1788,3.1788,3.1787,3.1775,3.1775,3.1776,3.1776,3.1724,3.1722,3.172,0,0,0,0,0,0,0,0,0,0,0,0,0,3.1867,3.1902,3.1834,3.1821,3.182,3.1789,3.1788,3.1787,3.1775,3.1775,3.1776,3.1776,3.1725,3.1722,3.172,3.1696,0,0,3.1712,3.1711,0,0,0,0,0,0,0,0,3.1869,3.1864,3.1824,3.1822,3.182,3.1788,3.1793,3.1756,3.1775,3.1792,3.1776,3.1777,3.1744,3.174,3.173,3.1693,3.1691,3.1712,3.171,3.1709,3.1709,0,0,0,0,0,0,0,3.1871,3.1866,3.1815,3.1823,3.1821,3.1816,3.1811,3.1786,3.1766,3.179,3.1789,3.1785,3.1743,3.1733,3.1729,3.169,3.1712,3.171,3.1708,3.1707,3.163,3.1629,0,0,0,0,0,0,3.1877,3.1868,3.1817,3.1814,3.1846,3.1814,3.1809,3.1798,3.1766,3.1762,3.1784,3.1784,3.1737,3.1732,3.1727,3.1696,3.1709,3.1707,3.1705,3.163,3.163,3.1629,0,0,0,0,0,0,3.1879,3.1873,3.1819,3.1841,3.1834,3.1813,3.18,3.1797,3.1786,3.1762,3.1757,3.1778,3.1737,3.1731,3.1704,3.1694,3.1706,3.1703,3.1631,3.163,3.1629,3.1635,0,0,0,0,0,0,3.1881,3.1873,3.1865,3.1841,3.1833,3.1798,3.18,3.1795,3.1783,3.1782,3.1754,3.175,3.1737,3.1708,3.1701,3.1691,3.1702,3.1632,3.1631,3.163,3.1636,3.1635,3.1634,0,0,0,0,0,3.1883,3.1867,3.1865,3.1859,3.1823,3.1798,3.1793,3.178,3.1782,3.1773,3.1757,3.1751,3.1697,3.1705,3.1698,3.1687,3.1632,3.1631,3.163,3.1636,3.1635,3.1634,0,0,0,0,0,0,3.1889,3.1864,3.1861,3.1837,3.182,3.1796,3.1784,3.1779,3.1758,3.1759,3.1741,3.1735,3.1709,3.1695,3.1705,3.1661,3.1664,3.1661,3.1671,3.167,3.1669,3.1672,3.1699,0,0,0,0,0,3.1888,3.1872,3.185,3.1831,3.1823,3.1805,3.1793,3.1785,3.1765,3.1757,3.1739,3.1719,3.1697,3.1683,3.1661,3.1634,3.1627,3.1622,3.1622,3.1621,3.1618,3.1602,3.1599,3.1625,3.1625,3.1625,0,0,3.1885,3.1869,3.1859,3.1832,3.1817,3.1799,3.1799,3.1779,3.1765,3.1754,3.1728,3.1714,3.1689,3.1662,3.1649,3.165,3.161,3.1619,3.1619,3.1617,3.16,3.1598,3.1595,3.1624,3.1624,3.1624,0,0,3.187,3.1857,3.184,3.1826,3.1804,3.1793,3.1789,3.1765,3.1756,3.173,3.1721,3.1703,3.1666,3.1649,3.1635,3.1614,3.1607,3.1607,3.1602,3.1586,3.1584,3.1582,3.1573,3.157,3.1605,3.1605,3.1605,0,3.1868,3.1842,3.1831,3.1812,3.18,3.1791,3.1772,3.1758,3.173,3.1721,3.1723,3.1676,3.1659,3.1627,3.1622,3.1612,3.1605,3.161,3.1585,3.1583,3.1581,3.1573,3.1569,3.1605,3.1605,3.1605,3.1605,0,3.184,3.1822,3.181,3.1786,3.1772,3.1753,3.1738,3.1724,3.1717,3.1705,3.1678,3.1657,3.1631,3.1623,3.1615,3.159,3.1591,3.1589,3.1591,3.1579,3.1571,3.1567,3.1605,3.1605,3.1605,3.1605,0,0,3.1827,3.1797,3.1793,3.1782,3.1758,3.1742,3.1723,3.17,3.1688,3.1669,3.1651,3.162,3.1618,3.1603,3.1593,3.1579,3.1562,3.1578,3.1578,3.1575,3.1531,3.1532,3.1529,3.1558,3.1557,3.1557,3.1533,0,3.1808,3.1775,3.1764,3.1736,3.1718,3.1709,3.1692,3.1674,3.1662,3.1643,3.1629,3.1607,3.1607,3.1598,3.1584,3.1567,3.1553,3.1569,3.1538,3.1537,3.1544,3.1525,3.1525,3.1504,3.153,3.1529,3.1529,0,3.1782,3.1764,3.1735,3.1713,3.1705,3.169,3.1667,3.1651,3.163,3.1621,3.1605,3.1596,3.1573,3.1577,3.1544,3.1555,3.1542,3.1532,3.1531,3.1526,3.1532,3.1519,3.1497,3.1494,3.1524,3.1524,3.1524,0,3.1774,3.1743,3.1721,3.1712,3.1686,3.1675,3.1663,3.1643,3.163,3.161,3.16,3.1577,3.1564,3.1545,3.1529,3.1534,3.1496,3.15,3.1487,3.1488,3.1479,3.1479,3.1454,3.1472,3.1472,3.1472,3.1472,0,3.1753,3.1735,3.1717,3.1704,3.1682,3.167,3.1648,3.1636,3.1618,3.16,3.1591,3.1574,3.1555,3.1534,3.1522,3.1495,3.1489,3.1481,3.1477,3.1481,3.1482,3.1471,3.1472,3.1471,3.1472,3.1472,3.1472,0,3.1741,3.1728,3.1704,3.1682,3.1676,3.1661,3.1642,3.1627,3.1615,3.1592,3.1586,3.1566,3.1542,3.1525,3.1493,3.1484,3.1455,3.1452,3.1463,3.1461,3.1449,3.145,3.1415,3.141,3.1433,3.1432,3.1432,0,3.1728,3.1714,3.1692,3.168,3.1669,3.1651,3.1638,3.1624,3.161,3.1586,3.1573,3.1549,3.1529,3.1491,3.1471,3.1447,3.1442,3.1432,3.1438,3.1443,3.1441,3.1442,3.144,3.1431,3.143,3.143,3.143,0,3.1707,3.1702,3.1684,3.1665,3.165,3.1633,3.1616,3.1606,3.1589,3.1574,3.1551,3.1535,3.1504,3.1479,3.1453,3.1438,3.143,3.1429,3.1424,3.1427,3.1434,3.1429,3.1459,3.1429,3.1429,3.1429,3.1429,3.1429,3.1693,3.168,3.1663,3.1643,3.1629,3.1614,3.1599,3.1586,3.1567,3.1542,3.1534,3.1509,3.1487,3.1452,3.1437,3.1416,3.1416,3.141,3.1408,3.1406,3.1406,3.1438,3.1411,3.1411,3.1411,3.1411,3.1411,0,3.1671,3.1659,3.1642,3.1619,3.1603,3.1601,3.1581,3.1568,3.1547,3.1528,3.1509,3.1482,3.1458,3.1437,3.1412,3.1399,3.1394,3.1392,3.1392,3.1389,3.1408,3.1414,3.1396,3.1396,3.1396,3.1396,3.1396,3.1396,3.1657,3.1635,3.1628,3.1598,3.1586,3.1563,3.1552,3.1537,3.1522,3.1493,3.1474,3.1462,3.1441,3.1415,3.1392,3.1386,3.1377,3.1375,3.1368,3.1386,3.1388,3.1389,3.1395,3.1373,3.1373,3.1351,3.1351,3.1351]}]]